This is the latest recevied weather packets stored in our database for station/object JE7UPL-13. If no packets are shown the sender has not sent any weather packets the latest 10 day(s).
| Time | Temp. | Humidity | Pressure | Rain* | Wind** | Luminosity | Snow |
|---|---|---|---|---|---|---|---|
| 1777627806 | 12.78° C | 91% | 990.2 hPa | 0 mm | - | - | - |
| 1777626906 | 12.78° C | 90% | 990.6 hPa | 0 mm | - | - | - |
| 1777626005 | 13.33° C | 89% | 990.8 hPa | 0 mm | - | - | - |
| 1777625105 | 13.89° C | 87% | 991.4 hPa | 0 mm | - | - | - |
| 1777624206 | 13.89° C | 88% | 991.7 hPa | 0 mm | - | - | - |
| 1777623305 | 13.89° C | 88% | 992 hPa | 0 mm | - | - | - |
| 1777622406 | 14.44° C | 87% | 992.6 hPa | 0 mm | - | - | - |
| 1777621505 | 14.44° C | 87% | 992.8 hPa | 0 mm | - | - | - |
| 1777620605 | 14.44° C | 87% | 993.4 hPa | 0 mm | - | - | - |
| 1777619705 | 15° C | 86% | 993.7 hPa | 0 mm | - | - | - |
| 1777618805 | 15° C | 84% | 993.9 hPa | 0 mm | - | - | - |
| 1777617906 | 15° C | 86% | 994.1 hPa | 0 mm | - | - | - |
| 1777617006 | 14.44° C | 88% | 994.7 hPa | 0 mm | - | - | - |
| 1777616105 | 14.44° C | 86% | 995.1 hPa | 0 mm | - | - | - |
| 1777615205 | 15° C | 84% | 995.7 hPa | 0 mm | - | - | - |
| 1777614305 | 15.56° C | 81% | 995.7 hPa | 0 mm | - | - | - |
| 1777613405 | 15° C | 81% | 996.3 hPa | 0 mm | - | - | - |
| 1777612505 | 15° C | 82% | 996.8 hPa | 0 mm | - | - | - |
| 1777611606 | 14.44° C | 87% | 997.4 hPa | 0 mm | - | - | - |
| 1777610706 | 12.78° C | 85% | 997.6 hPa | 0 mm | - | - | - |
| 1777609805 | 12.22° C | 83% | 998.1 hPa | 0 mm | - | - | - |
| 1777608905 | 12.22° C | 82% | 999 hPa | 0 mm | - | - | - |
| 1777608005 | 12.22° C | 80% | 999.7 hPa | 0 mm | - | - | - |
| 1777607105 | 13.33° C | 77% | 999.9 hPa | 0 mm | - | - | - |
| 1777606205 | 13.89° C | 72% | 1000.4 hPa | 0 mm | - | - | - |
* Rain latest hour (hover to see other rain measurements)
** Current wind speed in m/s (hover to see current wind gust speed)